• In Uzbekistan
  • List of Countries
  • For 7 days
  • Water Temperature
  • Satellite Maps
  • Weather Map
  • Weather Widgets
  • user-avatar
    Login

    Hourly Weather Khashuri

    Today, 23 October, Tuesday

    Time Temperature Precipitation Wind Pressure Humidity
    00:00 +6°C° 0 mm 1 mps 615 mmHg 91%
    01:00 +6°C° 0 mm 1 mps 615 mmHg 91%
    02:00 +6°C° 0 mm 1 mps 615 mmHg 90%
    03:00 +5°C° 0 mm 1 mps 615 mmHg 90%
    04:00 +5°C° 0 mm 1 mps 615 mmHg 89%
    05:00 +5°C° 0 mm 1 mps 615 mmHg 88%
    06:00 +5°C° 0 mm 1 mps 614 mmHg 88%
    07:00 +7°C° 0 mm 1 mps 615 mmHg 81%
    08:00 +8°C° 0 mm 1 mps 616 mmHg 75%
    09:00 +10°C° 0 mm 1 mps 616 mmHg 69%
    10:00 +11°C° 0 mm 1 mps 617 mmHg 62%
    11:00 +12°C° 0 mm 2 mps 617 mmHg 56%
    12:00 +13°C° 0 mm 2 mps 617 mmHg 50%
    13:00 +14°C° 0.1 mm 2 mps 617 mmHg 49%
    14:00 +14°C° 0.1 mm 2 mps 616 mmHg 48%
    15:00 +14°C° 0.1 mm 2 mps 616 mmHg 48%
    16:00 +12°C° 0.1 mm 1 mps 615 mmHg 56%
    17:00 +10°C° 0.1 mm 1 mps 615 mmHg 65%
    18:00 +8°C° 0.1 mm 1 mps 614 mmHg 73%
    19:00 +8°C° 0 mm 1 mps 614 mmHg 75%
    20:00 +8°C° 0 mm 1 mps 614 mmHg 76%
    21:00 +7°C° 0 mm 1 mps 614 mmHg 77%
    22:00 +7°C° 0 mm 1 mps 613 mmHg 77%
    23:00 +7°C° 0 mm 1 mps 613 mmHg 77%

    Tomorrow, 24 October, Wednesday

    Time Temperature Precipitation Wind Pressure Humidity
    00:00 +6°C° 0 mm 1 mps 613 mmHg 76%
    01:00 +6°C° 0 mm 1 mps 613 mmHg 77%
    02:00 +5°C° 0 mm 2 mps 612 mmHg 77%
    03:00 +5°C° 0 mm 2 mps 612 mmHg 78%
    04:00 +5°C° 0 mm 2 mps 612 mmHg 79%
    05:00 +5°C° 0 mm 2 mps 611 mmHg 79%
    06:00 +4°C° 0 mm 2 mps 611 mmHg 80%
    07:00 +6°C° 0 mm 2 mps 612 mmHg 75%
    08:00 +8°C° 0 mm 2 mps 612 mmHg 69%
    09:00 +10°C° 0 mm 2 mps 613 mmHg 64%
    10:00 +11°C° 0.1 mm 3 mps 613 mmHg 59%
    11:00 +12°C° 0.1 mm 3 mps 613 mmHg 55%
    12:00 +13°C° 0.1 mm 3 mps 612 mmHg 51%
    13:00 +13°C° 0.5 mm 3 mps 612 mmHg 54%
    14:00 +12°C° 0.5 mm 3 mps 611 mmHg 57%
    15:00 +13°C° 0.5 mm 2 mps 610 mmHg 60%
    16:00 +12°C° 0.6 mm 2 mps 610 mmHg 66%
    17:00 +10°C° 0.6 mm 2 mps 609 mmHg 72%
    18:00 +10°C° 0.6 mm 1 mps 609 mmHg 79%
    19:00 +9°C° 0.4 mm 1 mps 609 mmHg 79%
    20:00 +8°C° 0.4 mm 2 mps 608 mmHg 80%
    21:00 +8°C° 0.4 mm 2 mps 608 mmHg 81%
    22:00 +8°C° 0.3 mm 2 mps 608 mmHg 82%
    23:00 +7°C° 0.3 mm 3 mps 607 mmHg 83%

    Day after tomorrow, 25 October, Thursday

    Time Temperature Precipitation Wind Pressure Humidity
    00:00 +7°C° 0.3 mm 3 mps 607 mmHg 83%
    01:00 +7°C° 0.4 mm 3 mps 607 mmHg 84%
    02:00 +7°C° 0.4 mm 3 mps 607 mmHg 84%
    03:00 +7°C° 0.4 mm 3 mps 606 mmHg 85%
    04:00 +7°C° 0.2 mm 3 mps 606 mmHg 85%
    05:00 +7°C° 0.2 mm 3 mps 606 mmHg 86%
    06:00 +5°C° 0.2 mm 3 mps 605 mmHg 86%
    07:00 +7°C° 0.3 mm 3 mps 605 mmHg 82%
    08:00 +7°C° 0.3 mm 4 mps 606 mmHg 78%
    09:00 +8°C° 0.3 mm 4 mps 606 mmHg 74%
    10:00 +9°C° 0.7 mm 5 mps 605 mmHg 71%
    11:00 +9°C° 0.7 mm 6 mps 605 mmHg 68%
    12:00 +10°C° 0.7 mm 7 mps 605 mmHg 65%
    13:00 +9°C° 1 mm 7 mps 605 mmHg 69%
    14:00 +9°C° 1 mm 6 mps 604 mmHg 72%
    15:00 +8°C° 1 mm 5 mps 604 mmHg 76%
    16:00 +7°C° 2.2 mm 4 mps 604 mmHg 82%
    17:00 +5°C° 2.2 mm 4 mps 604 mmHg 87%
    18:00 +4°C° 2.2 mm 3 mps 605 mmHg 92%
    19:00 +3°C° 0.8 mm 3 mps 605 mmHg 93%
    20:00 +3°C° 0.8 mm 3 mps 605 mmHg 93%
    21:00 +3°C° 0.8 mm 2 mps 605 mmHg 93%
    22:00 +2°C° 1.5 mm 3 mps 605 mmHg 93%
    23:00 +1°C° 1.5 mm 3 mps 605 mmHg 93%

    26 October, Friday

    Time Temperature Precipitation Wind Pressure Humidity
    00:00 +1°C° 1.5 mm 3 mps 604 mmHg 93%
    01:00 0°C° 2.4 mm 3 mps 605 mmHg 93%
    02:00 0°C° 2.4 mm 3 mps 605 mmHg 93%
    03:00 -1°C° 2.4 mm 2 mps 605 mmHg 94%
    04:00 -1°C° 1.1 mm 2 mps 605 mmHg 94%
    05:00 -1°C° 1.1 mm 2 mps 606 mmHg 93%
    06:00 -1°C° 1.1 mm 2 mps 606 mmHg 93%
    07:00 -1°C° 0.4 mm 2 mps 607 mmHg 92%
    08:00 -1°C° 0.4 mm 2 mps 607 mmHg 91%
    09:00 -1°C° 0.4 mm 2 mps 608 mmHg 90%
    10:00 +1°C° 0.3 mm 2 mps 608 mmHg 89%
    11:00 +1°C° 0.3 mm 2 mps 608 mmHg 88%
    12:00 +2°C° 0.3 mm 2 mps 608 mmHg 86%
    13:00 +1°C° 0.3 mm 2 mps 608 mmHg 86%
    14:00 +1°C° 0.3 mm 2 mps 608 mmHg 86%
    15:00 0°C° 0.3 mm 3 mps 608 mmHg 85%
    16:00 +1°C° 0.3 mm 2 mps 609 mmHg 87%
    17:00 -1°C° 0.3 mm 2 mps 609 mmHg 89%
    18:00 0°C° 0.3 mm 1 mps 610 mmHg 91%
    19:00 -2°C° 0.1 mm 2 mps 610 mmHg 90%
    20:00 -3°C° 0.1 mm 2 mps 611 mmHg 90%
    21:00 -3°C° 0.1 mm 2 mps 611 mmHg 89%
    22:00 -4°C° 0 mm 2 mps 612 mmHg 87%
    23:00 -4°C° 0 mm 2 mps 612 mmHg 84%

    27 October, Saturday

    Time Temperature Precipitation Wind Pressure Humidity
    00:00 -5°C° 0 mm 2 mps 612 mmHg 82%
    01:00 -4°C° 0.2 mm 2 mps 613 mmHg 82%
    02:00 -5°C° 0.2 mm 3 mps 614 mmHg 83%
    03:00 -4°C° 0.2 mm 3 mps 615 mmHg 84%
    04:00 -3°C° 0.2 mm 2 mps 615 mmHg 85%
    05:00 -3°C° 0.2 mm 2 mps 616 mmHg 86%
    06:00 -3°C° 0.2 mm 2 mps 617 mmHg 87%
    07:00 -2°C° 0 mm 2 mps 617 mmHg 85%
    08:00 -1°C° 0 mm 2 mps 617 mmHg 84%
    09:00 -1°C° 0 mm 2 mps 618 mmHg 83%
    10:00 +1°C° 0 mm 2 mps 618 mmHg 81%
    11:00 +2°C° 0 mm 2 mps 618 mmHg 79%
    12:00 +3°C° 0 mm 2 mps 619 mmHg 77%
    13:00 +3°C° 0 mm 2 mps 619 mmHg 76%
    14:00 +4°C° 0 mm 2 mps 619 mmHg 75%
    15:00 +5°C° 0 mm 1 mps 618 mmHg 75%
    16:00 +3°C° 0 mm 1 mps 618 mmHg 78%
    17:00 +2°C° 0 mm 1 mps 618 mmHg 81%
    18:00 +1°C° 0 mm 1 mps 618 mmHg 84%
    19:00 0°C° 0 mm 1 mps 618 mmHg 81%
    20:00 -2°C° 0 mm 2 mps 618 mmHg 78%
    21:00 -2°C° 0 mm 2 mps 618 mmHg 75%
    22:00 -2°C° 0 mm 2 mps 618 mmHg 74%
    23:00 -2°C° 0 mm 2 mps 618 mmHg 72%

    28 October, Sunday

    Time Temperature Precipitation Wind Pressure Humidity
    00:00 -3°C° 0 mm 2 mps 618 mmHg 71%
    01:00 -3°C° 0 mm 2 mps 618 mmHg 70%
    02:00 -3°C° 0 mm 2 mps 618 mmHg 70%
    03:00 -3°C° 0 mm 2 mps 618 mmHg 70%
    04:00 -3°C° 0 mm 2 mps 619 mmHg 69%
    05:00 -3°C° 0 mm 2 mps 619 mmHg 69%
    06:00 -3°C° 0 mm 2 mps 619 mmHg 68%
    07:00 -1°C° 0 mm 2 mps 619 mmHg 66%
    08:00 +2°C° 0 mm 2 mps 620 mmHg 64%
    09:00 +3°C° 0 mm 2 mps 620 mmHg 62%
    10:00 +5°C° 0 mm 2 mps 621 mmHg 61%
    11:00 +6°C° 0 mm 2 mps 621 mmHg 61%
    12:00 +8°C° 0 mm 2 mps 621 mmHg 60%
    13:00 +8°C° 0 mm 2 mps 621 mmHg 60%
    14:00 +8°C° 0 mm 2 mps 621 mmHg 59%
    15:00 +8°C° 0 mm 2 mps 621 mmHg 58%
    16:00 +6°C° 0 mm 2 mps 620 mmHg 60%
    17:00 +4°C° 0 mm 2 mps 620 mmHg 62%
    18:00 +3°C° 0 mm 2 mps 619 mmHg 64%
    19:00 +2°C° 0 mm 2 mps 619 mmHg 62%
    20:00 +2°C° 0 mm 2 mps 619 mmHg 60%
    21:00 +2°C° 0 mm 2 mps 619 mmHg 58%
    22:00 +1°C° 0 mm 2 mps 619 mmHg 57%
    23:00 +1°C° 0 mm 2 mps 619 mmHg 56%

    29 October, Monday

    Time Temperature Precipitation Wind Pressure Humidity
    00:00 +1°C° 0 mm 2 mps 619 mmHg 55%
    01:00 +1°C° 0 mm 2 mps 618 mmHg 55%
    02:00 +1°C° 0 mm 2 mps 618 mmHg 54%
    03:00 +1°C° 0 mm 2 mps 618 mmHg 53%
    04:00 +1°C° 0 mm 2 mps 618 mmHg 52%
    05:00 +1°C° 0 mm 2 mps 618 mmHg 51%
    06:00 +1°C° 0 mm 2 mps 618 mmHg 50%
    07:00 +3°C° 0 mm 2 mps 619 mmHg 50%
    08:00 +5°C° 0 mm 2 mps 619 mmHg 50%
    09:00 +7°C° 0 mm 2 mps 620 mmHg 49%
    10:00 +8°C° 0 mm 2 mps 620 mmHg 49%
    11:00 +10°C° 0 mm 2 mps 621 mmHg 48%
    12:00 +12°C° 0 mm 2 mps 621 mmHg 48%
    13:00 +12°C° 0 mm 2 mps 621 mmHg 48%
    14:00 +12°C° 0 mm 2 mps 621 mmHg 47%
    15:00 +12°C° 0 mm 2 mps 620 mmHg 47%
    16:00 +9°C° 0 mm 2 mps 620 mmHg 49%
    17:00 +7°C° 0 mm 2 mps 619 mmHg 50%
    18:00 +5°C° 0 mm 2 mps 618 mmHg 51%
    19:00 +4°C° 0 mm 2 mps 618 mmHg 50%
    20:00 +3°C° 0 mm 3 mps 618 mmHg 49%
    21:00 +3°C° 0 mm 3 mps 618 mmHg 48%
    22:00 +2°C° 0 mm 3 mps 618 mmHg 48%
    23:00 +2°C° 0 mm 3 mps 618 mmHg 49%
    Show more